George, South Africa

2:05 AM SAST on July 23, 2017 (GMT +0200)
George

Weather History for FAGG - December, 2011

Change the Weather History Date:

Tuesday, December 6, 2011

  Actual Average Record
Temperature  
Mean Temperature 67 °F -  
Max Temperature 72 °F 72 °F 91 °F (2016)
Min Temperature 60 °F 57 °F 50 °F (2012)
Cooling Degree Days 2    
Growing Degree Days 17 (Base 50)    
Moisture  
Dew Point 61 °F    
Average Humidity 80    
Maximum Humidity 100    
Minimum Humidity 60    
Precipitation  
Precipitation 0.00 in - - ()
Sea Level Pressure  
Sea Level Pressure 29.85 in    
Wind  
Wind Speed 4 mph ()    
Max Wind Speed 12 mph    
Max Gust Speed -    
Visibility 7.2 miles    
Events      
Averages and records for this station are not official NWS values.
T = Trace of Precipitation, MM = Missing Value Source: Averaged Metar Reports

Daily Weather History Graph

Daily Weather History Graph

Search for Another Location

Airport or City:

Trip Planner

Search our weather history database for the weather conditions in past years. The results will help you decide how hot, cold, wet, or windy it might be!

Date:

Astronomy

Dec. 06, 2011 Rise Set
Actual Time 5:12 AM SAST 7:30 PM SAST
Civil Twilight 4:43 AM SAST 7:59 PM SAST
Nautical Twilight 4:07 AM SAST 8:35 PM SAST
Astronomical Twilight 3:29 AM SAST 9:13 PM SAST
Moon 3:57 PM SAST (12/6) 2:16 AM SAST (12/6)
Length of Visible Light 15h 16m
Length of Day
14h 18m
Waxing Gibbous, 84% of the Moon is Illuminated
Dec 6
Waxing Gibbous
Dec 10
Full
Dec 18
Last Quarter
Dec 24
New
Jan 1
First Quarter

Hourly Weather History & Observations

Time (SAST) Temp. Dew Point Humidity Pressure Visibility Wind Dir Wind Speed Gust Speed Precip Events Conditions
12:00 AM 64.4 °F 60.8 °F 88% 29.86 in 6.2 mi NNW 3.5 mph - N/A   Partly Cloudy
1:00 AM 64.4 °F 60.8 °F 88% 29.86 in - NW 4.6 mph - N/A   Clear
2:00 AM 62 °F 60 °F 93% 29.86 in 6 mi West 4.6 mph - -  
2:00 AM 62.6 °F 60.8 °F 94% 29.86 in 6.2 mi West 4.6 mph - N/A   Scattered Clouds
3:00 AM 64.4 °F 60.8 °F 88% 29.83 in 6.2 mi NW 3.5 mph - N/A   Overcast
4:00 AM 64.4 °F 60.8 °F 88% 29.83 in 6.2 mi NNW 3.5 mph - N/A   Overcast
5:00 AM 62.6 °F 60.8 °F 94% 29.83 in 6.2 mi North 2.3 mph - N/A   Partly Cloudy
6:00 AM 62.6 °F 62.6 °F 100% 29.83 in 6.2 mi WNW 2.3 mph - N/A   Mostly Cloudy
7:00 AM 64.4 °F 62.6 °F 94% 29.86 in 6.2 mi West 2.3 mph - N/A   Mostly Cloudy
8:00 AM 67 °F 63 °F 81% 29.87 in 12 mi 2.3 mph - -   Mostly Cloudy
8:00 AM 68.0 °F 62.6 °F 83% 29.86 in 6.2 mi WNW 3.5 mph - N/A   Mostly Cloudy
9:00 AM 69.8 °F 60.8 °F 73% 29.86 in 6.2 mi West 3.5 mph - N/A   Mostly Cloudy
10:00 AM 69.8 °F 62.6 °F 78% 29.86 in 6.2 mi SE 5.8 mph - N/A   Mostly Cloudy
11:00 AM 72 °F 61 °F 60% 29.85 in 12 mi SE 5.8 mph - -   Mostly Cloudy
11:00 AM 71.6 °F 60.8 °F 69% 29.86 in 6.2 mi SE 3.5 mph - N/A   Mostly Cloudy
12:00 PM 71.6 °F 62.6 °F 73% 29.86 in 6.2 mi SSE 10.4 mph - N/A   Mostly Cloudy
1:00 PM 71.6 °F 62.6 °F 73% 29.86 in 6.2 mi SSE 9.2 mph - N/A   Mostly Cloudy
2:00 PM 71 °F 61 °F 62% 29.86 in 12 mi SSE 8.1 mph - -   Mostly Cloudy
2:00 PM 71.6 °F 60.8 °F 69% 29.86 in 6.2 mi SSE 8.1 mph - N/A   Mostly Cloudy
3:00 PM 69.8 °F 59.0 °F 68% 29.83 in 6.2 mi SSE 11.5 mph - N/A   Mostly Cloudy
4:00 PM 69.8 °F 60.8 °F 73% 29.83 in 6.2 mi SSE 10.4 mph - N/A   Mostly Cloudy
5:00 PM 70 °F 60 °F 63% 29.83 in 12 mi SSE 9.2 mph - -   Mostly Cloudy
5:00 PM 69.8 °F 60.8 °F 73% 29.83 in 6.2 mi SE 9.2 mph - N/A   Mostly Cloudy
6:00 PM 68.0 °F 59.0 °F 73% 29.83 in 6.2 mi SE 8.1 mph - N/A   Mostly Cloudy
7:00 PM 68.0 °F 59.0 °F 73% 29.86 in 6.2 mi SE 4.6 mph - N/A   Mostly Cloudy
8:00 PM 66 °F 60 °F 76% 29.88 in 12 mi East 2.3 mph - -   Mostly Cloudy
8:00 PM 66.2 °F 60.8 °F 83% 29.86 in 6.2 mi East 2.3 mph - N/A   Mostly Cloudy
9:00 PM 66.2 °F 59.0 °F 78% 29.86 in 6.2 mi ESE 2.3 mph - N/A   Mostly Cloudy
10:00 PM 64.4 °F 59.0 °F 83% 29.86 in - Variable 1.2 mph - N/A   Clear
11:00 PM 60.8 °F 59.0 °F 94% 29.89 in 6.2 mi West 3.5 mph - N/A   Partly Cloudy